Location: Baumgarten
(49.0970°N, 12.7493°E)
Time: 03:00:02
(UTC+00:00)

NOSS 3-4 (A) - Pass Details

Date: 05 July 2020
Orbit: 892 x 1320 km, 63.4° (Epoch: 12 July)

Event Time Altitude Azimuth Distance (km) Brightness Sun altitude
Rises 22:05:30 0° 317° (NW) 3,807 7.8 -16.6°
Reaches altitude 10° 22:08:01 10° 315° (NW) 2,909 6.9 -16.8°
Maximum altitude 22:14:56 71° 233° (SW) 1,217 3.9 -17.0°
Enters shadow 22:19:47 24° 155° (SSE) 2,257 4.8 -17.2°
